Location: Rioux
(40.7500°S, 175.7500°E)
Time: 10:29:55
(UTC+00:00)

ADEOS Rocket - Pass Details

Date: 12 June 2024
Orbit: 858 x 1306 km, 98.7° (Epoch: 20 July)

Event Time Altitude Azimuth Distance (km) Brightness Sun altitude
Rises 18:53:57 0° 5° (N) 3,698 6.4 -8.4°
Reaches altitude 10° 18:56:32 10° 1° (N) 2,699 5.7 -7.9°
Maximum altitude 19:02:25 60° 281° (WNW) 1,041 3.0 -6.9°
Drops below altitude 10° 19:07:58 10° 201° (SSW) 2,550 4.8 -6.0°
Sets 19:10:22 0° 197° (SSW) 3,478 5.5 -5.6°
